Overview Statistics Trail Chart Weather Telemetry Raw packets
 

This is the latest recevied weather packets stored in our database for station/object S56OA-13. If no packets are shown the sender has not sent any weather packets the latest 10 day(s).

<< 3 4 5 6 7 8 9 >>
Time Temp. Humidity Pressure Rain* Wind** Luminosity Snow
1788452710 27.22° C 42% 905.6 hPa - - - -
1788450897 28.89° C 43% 907.8 hPa - - - -
1788447294 34.44° C 43% 935.4 hPa - - - -
1788445493 34.44° C 43% 932.2 hPa - - - -
1788443691 37.22° C 42% 947.6 hPa - - - -
1788441890 35.56° C 42% 939 hPa - - - -
1788440088 33.89° C 44% 933.8 hPa - - - -
1788438287 36.11° C 43% 942.5 hPa - - - -
1788436491 35.56° C 42% 938.6 hPa - - - -
1788434685 32.22° C 43% 926.8 hPa - - - -
1788432883 28.89° C 44% - - - - -
1788432883 28.89° C 44% 911.7 hPa - - - -
1788431082 32.78° C 42% 925.4 hPa - - - -
1788429281 32.78° C 41% 922.7 hPa - - - -
1788427480 32.78° C 40% 920.8 hPa - - - -
1788425678 31.67° C 40% 918.3 hPa - - - -
1788423877 28.89° C 41% 909.5 hPa - - - -
1788422076 27.22° C 41% 902.6 hPa - - - -
1788420275 26.11° C 41% 898.3 hPa - - - -
1788418474 24.44° C 41% 893 hPa - - - -
1788416672 22.78° C 41% 887.8 hPa - - - -
1788414871 21.11° C 41% 881.2 hPa - - - -
1788413070 17.78° C 42% 872 hPa - - - -
1788411269 17.22° C 42% 869.5 hPa - - - -
1788407666 17.78° C 42% 869.6 hPa - - - -

* Rain since midnight (hover to see other rain measurements)
** Current wind speed in m/s (hover to see current wind gust speed)